Weather History for LIMC - October, 2012

Change the Weather History Date:

Thursday, October 4, 2012

  Actual Average (WUND) Record (WUND)
Temperature  
Mean Temperature 61 °F -  
Max Temperature 69 °F 63 °F - (-1)
Min Temperature 53 °F 43 °F - (-1)
Degree Days  
Heating Degree Days 4    
Growing Degree Days 11 (Base 50)    
Moisture  
Dew Point 57 °F    
Average Humidity 85    
Maximum Humidity 100    
Minimum Humidity 60    
Precipitation  
Precipitation 0.00 in 0.14 in - ()
Sea Level Pressure  
Sea Level Pressure 30.04 in    
Wind  
Wind Speed 1 mph ()    
Max Wind Speed 5 mph    
Max Gust Speed -    
Visibility 6.0 miles    
Events Fog    
Averages and records for this station are not official NWS values.
T = Trace of Precipitation, MM = Missing Value Source: Averaged Metar Reports

Daily Weather History Graph

Daily Weather History Graph

Search for Another Location

Airport or City:

Trip Planner

Search our weather history database for the weather conditions in past years. The results will help you decide how hot, cold, wet, or windy it might be!

Date:

Astronomy

Oct. 04, 2012 Rise Set
Actual Time 7:27 AM CEST 6:59 PM CEST
Civil Twilight 6:57 AM CEST 7:28 PM CEST
Nautical Twilight 6:23 AM CEST 8:03 PM CEST
Astronomical Twilight 5:48 AM CEST 8:37 PM CEST
Moon 9:08 PM CEST (10/4) 11:43 AM CEST (10/4)
Length of Visible Light 12h 30m
Length of Day
11h 31m
Waning Gibbous, 84% of the Moon is Illuminated
Oct 4
Waning Gibbous
Oct 8
Last Quarter
Oct 15
New
Oct 22
First Quarter
Oct 29
Full

Hourly Weather History & Observations

Time (CEST) Temp. Dew Point Humidity Pressure Visibility Wind Dir Wind Speed Gust Speed Precip Events Conditions
12:20 AM 57.2 °F 55.4 °F 94% 30.06 in - Calm Calm - N/A   Clear
12:50 AM 57.2 °F 57.2 °F 100% 30.06 in 6.2 mi North 2.3 mph - N/A   Scattered Clouds
1:20 AM 57.2 °F 55.4 °F 94% 30.06 in 6.2 mi Calm Calm - N/A   Scattered Clouds
1:50 AM 55.4 °F 55.4 °F 100% 30.06 in 6.2 mi NNE 1.2 mph - N/A   Partly Cloudy
2:20 AM 55.4 °F 55.4 °F 100% 30.06 in 6.2 mi Calm Calm - N/A   Partly Cloudy
2:50 AM 53.6 °F 53.6 °F 100% 30.06 in 6.2 mi Calm Calm - N/A   Partly Cloudy
3:20 AM 53.6 °F 53.6 °F 100% 30.06 in 6.2 mi North 1.2 mph - N/A   Partly Cloudy
3:50 AM 53.6 °F 53.6 °F 100% 30.06 in 6.2 mi Calm Calm - N/A   Partly Cloudy
4:20 AM 57.2 °F 57.2 °F 100% 30.04 in 6.2 mi East 2.3 mph - N/A   Partly Cloudy
4:50 AM 57.2 °F 55.4 °F 94% 30.04 in 6.2 mi North 2.3 mph - N/A   Partly Cloudy
5:20 AM 55.4 °F 55.4 °F 100% 30.04 in 6.2 mi North 2.3 mph - N/A   Partly Cloudy
5:50 AM 55.4 °F 53.6 °F 94% 30.04 in 6.2 mi Calm Calm - N/A   Partly Cloudy
6:20 AM 55.4 °F 53.6 °F 94% 30.04 in 5.0 mi Calm Calm - N/A   Partly Cloudy
6:50 AM 53.6 °F 53.6 °F 100% 30.04 in 5.0 mi NNW 1.2 mph - N/A   Partly Cloudy
7:20 AM 53.6 °F 51.8 °F 94% 30.04 in 5.0 mi Calm Calm - N/A Fog Fog
7:50 AM 57.2 °F 55.4 °F 94% 30.04 in 5.0 mi Calm Calm - N/A Fog Fog
8:20 AM 59.0 °F 57.2 °F 94% 30.06 in 5.0 mi Variable 2.3 mph - N/A   Scattered Clouds
8:50 AM 60.8 °F 57.2 °F 88% 30.06 in 5.0 mi Variable 2.3 mph - N/A   Mostly Cloudy
9:20 AM 60.8 °F 59.0 °F 94% 30.06 in 5.6 mi Variable 2.3 mph - N/A   Mostly Cloudy
9:50 AM 62.6 °F 59.0 °F 88% 30.06 in 5.6 mi Variable 2.3 mph - N/A   Mostly Cloudy
10:20 AM 62.6 °F 57.2 °F 82% 30.06 in 5.6 mi Variable 2.3 mph - N/A   Mostly Cloudy
10:50 AM 66.2 °F 59.0 °F 78% 30.06 in 5.6 mi Variable 2.3 mph - N/A   Mostly Cloudy
11:20 AM 66.2 °F 59.0 °F 78% 30.06 in 5.6 mi Variable 2.3 mph - N/A   Mostly Cloudy
11:50 AM 66.2 °F 59.0 °F 78% 30.06 in 5.6 mi Variable 1.2 mph - N/A   Mostly Cloudy
12:20 PM 66.2 °F 59.0 °F 78% 30.06 in 5.6 mi Variable 2.3 mph - N/A   Mostly Cloudy
12:50 PM 66.2 °F 57.2 °F 73% 30.06 in 6.2 mi Variable 2.3 mph - N/A   Mostly Cloudy
1:20 PM 68.0 °F 57.2 °F 68% 30.04 in 6.2 mi Variable 1.2 mph - N/A   Mostly Cloudy
1:50 PM 68.0 °F 57.2 °F 68% 30.04 in 6.2 mi Calm Calm - N/A   Mostly Cloudy
2:20 PM 69.8 °F 57.2 °F 64% 30.04 in 6.2 mi Variable 1.2 mph - N/A   Mostly Cloudy
2:50 PM 68.0 °F 57.2 °F 68% 30.04 in 6.2 mi Calm Calm - N/A   Mostly Cloudy
3:20 PM 69.8 °F 57.2 °F 64% 30.01 in 6.2 mi Calm Calm - N/A   Mostly Cloudy
3:50 PM 69.8 °F 57.2 °F 64% 30.01 in 6.2 mi Calm Calm - N/A   Mostly Cloudy
4:20 PM 69.8 °F 55.4 °F 60% 30.01 in 6.2 mi Calm Calm - N/A   Mostly Cloudy
4:50 PM 69.8 °F 57.2 °F 64% 30.01 in 6.2 mi Variable 2.3 mph - N/A   Mostly Cloudy
5:20 PM 69.8 °F 57.2 °F 64% 30.01 in 6.2 mi Calm Calm - N/A   Mostly Cloudy
5:50 PM 69.8 °F 55.4 °F 60% 30.01 in 6.2 mi Calm Calm - N/A   Mostly Cloudy
6:20 PM 68.0 °F 59.0 °F 73% 30.01 in 6.2 mi Calm Calm - N/A   Mostly Cloudy
6:50 PM 66.2 °F 57.2 °F 73% 30.01 in 6.2 mi Variable 1.2 mph - N/A   Mostly Cloudy
7:20 PM 62.6 °F 59.0 °F 88% 30.04 in 6.2 mi Calm Calm - N/A   Mostly Cloudy
7:50 PM 62.6 °F 59.0 °F 88% 30.04 in 6.2 mi North 2.3 mph - N/A   Mostly Cloudy
8:20 PM 62.6 °F 59.0 °F 88% 30.04 in 6.2 mi North 2.3 mph - N/A   Mostly Cloudy
8:50 PM 60.8 °F 59.0 °F 94% 30.04 in 6.2 mi North 3.5 mph - N/A   Scattered Clouds
9:20 PM 64.4 °F 59.0 °F 83% 30.04 in 6.2 mi North 4.6 mph - N/A   Scattered Clouds
9:50 PM 62.6 °F 59.0 °F 88% 30.06 in 6.2 mi North 3.5 mph - N/A   Scattered Clouds
10:20 PM 60.8 °F 59.0 °F 94% 30.06 in 6.2 mi North 3.5 mph - N/A   Mostly Cloudy
10:50 PM 60.8 °F 59.0 °F 94% 30.06 in 6.2 mi North 3.5 mph - N/A   Mostly Cloudy
11:20 PM 59.0 °F 57.2 °F 94% 30.06 in 6.2 mi NNW 2.3 mph - N/A   Mostly Cloudy
11:50 PM 59.0 °F 57.2 °F 94% 30.06 in 6.2 mi NNW 3.5 mph - N/A   Mostly Cloudy